Find Starlink 32004

NORAD ID: 60151 Int'l Des: 2024-120 Owner: SPXS Country: US Constellation: starlink operational
LEOCIRCULAR

当前视图

正在加载3D地球...

About Starlink 32004

Starlink 32004 (NORAD 60151) is a starlink constellation satellite (v2 mini) launched Jun 27, 2024 by SPXS of US. It operates in LEO, CIRCULAR orbit with a mass of 730.00 kg.

关于 Starlink 32004

正在加载描述...

即将过境

Passes for default location (London). Set your location on the main map for personalized predictions.

高度历史

Loading altitude history...

两行轨道根数

1 60151U 24120S 26171.37379839 .00000292 00000-0 19781-4 0 9991
2 60151 53.1611 202.5355 0001146 81.5769 278.5363 15.34397569112181
Epoch: Jun 20, 2026 • Age: 25 hours

当前状态

高度 475.8 km
速度 7.63 km/s
星下点 -38.58°S, 105.21°E
发射日期 Jun 27, 2024
运行时间 1.9 years
类型 internet

技术详情

分类 Payload
质量 730.00 kg
干质量 700.00 kg
总质量 730.00 kg
长度 0.30 m
直径 4.10 m
跨度 29.00 m
形状 Box + pan
制造商 SPXS
平台类型 Starlink V2M
阶段状态 In Orbit
所有者/国家 SPXS/US

Most Searched